Hourly Data Report for March 26, 2020

OTTAWA INTL A
ONTARIO
Current Station Operator: NAVCAN

45°19'00.000" N
75°40'00.000" W
114.90 m
6106001
71628
YOW

Download Data

Hourly Data (March 2020)
Hourly Data Report for March 26, 2020
TIME
LST
Temp Definition
°C
Dew Point Definition
°C
Rel Hum Definition
%
Precip. Amount Definition
mm

Wind Dir Definition
10's deg

Wind Spd Definition
km/h
Visibility Definition
km
Stn Press Definition
kPa
Hmdx Definition


Wind Chill Definition


Weather Definition


00:00 2.0 1.4 95   15 9 24.1 100.14     LegendNANA
01:00 2.4 0.9 90   14 10 24.1 100.10     Mostly Cloudy
02:00 2.6 0.6 87   17 6 24.1 100.08     LegendNANA
03:00 2.1 0.4 88   13 9 24.1 100.05     LegendNANA
04:00 2.0 0.2 88   14 12 24.1 99.97     Mostly Cloudy
05:00 1.9 0.2 88   13 8 24.1 99.94     LegendNANA
06:00 2.2 0.3 87   15 12 24.1 99.96     LegendNANA
07:00 2.8 0.8 86   21 6 24.1 99.98     Rain
08:00 3.0 1.7 91   18 8 24.1 99.95     Rain
09:00 3.8 2.5 91   16 17 16.1 99.82     Rain
10:00 5.1 3.5 90   16 9 24.1 99.72     Cloudy
11:00 6.9 4.1 82   16 11 24.1 99.64     LegendNANA
12:00 8.2 3.6 73   18 14 24.1 99.55     LegendNANA
13:00 9.9 4.7 70   15 16 24.1 99.34     Cloudy
14:00 10.9 4.7 65   17 20 24.1 99.08     LegendNANA
15:00 8.1 6.6 90   27 8 24.1 99.21     Rain
16:00 8.0 6.6 91   24 9 24.1 99.17     Cloudy
17:00 8.0 6.4 90   22 17 24.1 99.14     LegendNANA
18:00 5.0 3.7 91   30 31 8.1 99.28     Rain Showers, Fog
19:00 3.9 2.8 93   28 25 24.1 99.34     Mostly Cloudy
20:00 3.0 2.0 93   30 19 24.1 99.42     LegendNANA
21:00 2.7 0.9 88   30 19 24.1 99.47     LegendNANA
22:00 2.8 1.3 90   32 23 24.1 99.54     Mostly Cloudy
23:00 1.7 0.2 90   32 22 24.1 99.57     LegendNANA

Notes on Data Quality.

Legend

  • E = Estimated
  • M = Missing
  • NA = Not Available*
  • [empty] = Indicates an unobserved value
Date modified: